Weather History for MDPC - January, 2014

Change the Weather History Date:

Tuesday, January 14, 2014

  Actual Average Record
Temperature  
Mean Temperature 78 °F -  
Max Temperature 82 °F 81 °F 86 °F (2002)
Min Temperature 75 °F 72 °F 68 °F (2004)
Cooling Degree Days 14    
Growing Degree Days 28 (Base 50)    
Moisture  
Dew Point 69 °F    
Average Humidity 72    
Maximum Humidity 83    
Minimum Humidity 51    
Precipitation  
Precipitation 0.00 in - - ()
Sea Level Pressure  
Sea Level Pressure 30.07 in    
Wind  
Wind Speed 8 mph ()    
Max Wind Speed 14 mph    
Max Gust Speed -    
Visibility 6.4 miles    
Events      
Averages and records for this station are not official NWS values.
T = Trace of Precipitation, MM = Missing Value Source: Averaged Metar Reports

Daily Weather History Graph

Daily Weather History Graph

Search for Another Location

Airport or City:

Trip Planner

Search our weather history database for the weather conditions in past years. The results will help you decide how hot, cold, wet, or windy it might be!

Date:

Astronomy

Jan. 14, 2014 Rise Set
Actual Time 7:08 AM AST 6:16 PM AST
Civil Twilight 6:45 AM AST 6:39 PM AST
Nautical Twilight 6:18 AM AST 7:06 PM AST
Astronomical Twilight 5:51 AM AST 7:33 PM AST
Moon 5:14 PM AST (1/14) 5:44 AM AST (1/14)
Length of Visible Light 11h 54m
Length of Day
11h 07m
Waxing Gibbous, 98% of the Moon is Illuminated
Jan 14
Waxing Gibbous
Jan 16
Full
Jan 24
Last Quarter
Jan 30
New
Feb 6
First Quarter

Hourly Weather History & Observations

Time (AST) Temp. Heat Index Dew Point Humidity Pressure Visibility Wind Dir Wind Speed Gust Speed Precip Events Conditions
12:00 AM 77.0 °F - 68.0 °F 74% 30.09 in 6.2 mi SE 9.2 mph - N/A   Partly Cloudy
1:00 AM 75.2 °F - 68.0 °F 78% 30.06 in 6.2 mi SE 9.2 mph - N/A   Partly Cloudy
2:00 AM 75.2 °F - 68.0 °F 78% 30.06 in 6.2 mi ESE 9.2 mph - N/A   Partly Cloudy
3:00 AM 75.2 °F - 68.0 °F 78% 30.06 in 6.2 mi ESE 4.6 mph - N/A   Partly Cloudy
4:00 AM 75.2 °F - 69.8 °F 83% 30.04 in 6.2 mi SE 11.5 mph - N/A   Scattered Clouds
5:00 AM 76 °F - 69 °F 72% 30.06 in 10 mi SE 4.5 mph - -   Scattered Clouds
5:00 AM 75.2 °F - 68.0 °F 78% - 6.2 mi SE 4.6 mph - N/A   Partly Cloudy
7:00 AM 75.2 °F - 69.8 °F 83% 30.06 in 6.2 mi ESE 8.1 mph - N/A   Partly Cloudy
8:00 AM 77.0 °F - 69.8 °F 78% 30.09 in 6.2 mi SE 11.5 mph - N/A   Partly Cloudy
9:00 AM 78.8 °F - 69.8 °F 74% 30.09 in 6.2 mi ESE 11.5 mph - N/A   Scattered Clouds
10:00 AM 78.8 °F - 69.8 °F 74% 30.12 in 6.2 mi SE 11.5 mph - N/A   Partly Cloudy
11:00 AM 80.6 °F 83.2 °F 68.0 °F 65% 30.12 in 6.2 mi ESE 13.8 mph - N/A   Partly Cloudy
12:00 PM 82.4 °F 83.4 °F 62.6 °F 51% 30.09 in 6.2 mi SE 12.7 mph - N/A   Partly Cloudy
1:00 PM 82.4 °F 83.9 °F 64.4 °F 54% 30.06 in 6.2 mi ESE 9.2 mph - N/A   Partly Cloudy
2:00 PM 82.4 °F 84.6 °F 66.2 °F 58% 30.06 in 6.2 mi East 11.5 mph - N/A   Partly Cloudy
3:00 PM 82.4 °F 84.6 °F 66.2 °F 58% 30.04 in 6.2 mi SE 9.2 mph - N/A   Partly Cloudy
4:00 PM 82.4 °F 85.4 °F 68.0 °F 62% 30.04 in 6.2 mi ESE 11.5 mph - N/A   Partly Cloudy
5:00 PM 80.6 °F 83.2 °F 68.0 °F 65% 30.04 in 6.2 mi ESE 9.2 mph - N/A   Partly Cloudy
6:00 PM 78.8 °F - 69.8 °F 74% 30.04 in 6.2 mi ESE 6.9 mph - N/A   Partly Cloudy
7:00 PM 78.8 °F - 71.6 °F 78% 30.06 in 6.2 mi ESE 10.4 mph - N/A   Partly Cloudy
8:00 PM 78.8 °F - 71.6 °F 78% 30.06 in 6.2 mi ESE 11.5 mph - N/A   Partly Cloudy
9:00 PM 78.8 °F - 69.8 °F 74% 30.06 in 6.2 mi ESE 9.2 mph - N/A   Scattered Clouds
10:00 PM 77.0 °F - 71.6 °F 83% 30.09 in 6.2 mi East 11.5 mph - N/A   Scattered Clouds
11:00 PM 77.0 °F - 71.6 °F 83% 30.09 in 6.2 mi ESE 12.7 mph - N/A   Scattered Clouds